sat.trackr.live / text

‹ back to catalog

STARLINK-33808

NORAD 63767 · 2025-089S

PAYLOAD ACTIVE UNKNOWN

§ Identity

Operator
Country
US
Launch date
2025-04-29
Launch site
AFETR
Launch vehicle
Mass (kg)
RCS (m²)

Purposes: comms

External: N2YO · Heavens-Above · Gunter

§ Orbital elements

Epoch: 2026-09-20T09:14:26.096064Z

Period
94.27 min
Inclination
43.0029°
Eccentricity
0.0001687
Mean motion
15.27589315 rev/d
Perigee alt
481.9 km
Apogee alt
484.2 km
Semi-major
6,861.2 km
B*
7.3307e-4
RAAN
25.7011°
Arg perigee
273.3457°
Mean anomaly
86.7202°
Rev number
7,873

§ Raw data

STARLINK-338081 63767U 25089S   26263.38502426  .00019971  00000+0  73307-3 0  99912 63767  43.0029  25.7011 0001687 273.3457  86.7202 15.27589315 78734

JSON: /api/v1/satellites/63767 · /tle

For live sub-satellite position, see the globe view (requires WebGL).

§ Visibility from observer

Set your observer location to see the next 7 days of passes ≥ 10°. The values pass through the URL so the page stays shareable.

No JS? Fill the form by hand. The geolocation button needs JavaScript.